Erie, PA

2:52 PM EDT on August 18, 2017 (GMT -0400)
Erie International

Weather History for KERI - May, 2013

Change the Weather History Date:

Saturday, May 25, 2013

  Actual Average Record
Temperature  
Mean Temperature 50 °F 60 °F  
Max Temperature 57 °F 69 °F 89 °F (1975)
Min Temperature 43 °F 51 °F 31 °F (1956)
Degree Days  
Heating Degree Days 15 6  
Month to date heating degree days 157 235  
Since 1 July heating degree days 5784 6054  
Cooling Degree Days 0 2  
Month to date cooling degree days 48 21  
Year to date cooling degree days 48 28  
Moisture  
Dew Point 37 °F    
Average Humidity 62    
Maximum Humidity 76    
Minimum Humidity 47    
Precipitation  
Precipitation 0.00 in 0.12 in 2.19 in (1953)
Month to date precipitation 2.45 2.76  
Year to date precipitation 14.02 14.38  
Snow  
Snow 0.00 in 0.00 in - ()
Month to date snowfall 0.0 0.0  
Since 1 July snowfall 105.5 100.9  
Snow Depth 0.00 in    
Sea Level Pressure  
Sea Level Pressure 30.29 in    
Wind  
Wind Speed 11 mph (NW)    
Max Wind Speed 20 mph    
Max Gust Speed 25 mph    
Visibility 10 miles    
Events      
T = Trace of Precipitation, MM = Missing Value Source: NWS Daily Summary

Daily Weather History Graph

Daily Weather History Graph

Search for Another Location

Airport or City:

Trip Planner

Search our weather history database for the weather conditions in past years. The results will help you decide how hot, cold, wet, or windy it might be!

Date:

Astronomy

May. 25, 2013 Rise Set
Actual Time 5:51 AM EDT 8:44 PM EDT
Civil Twilight 5:18 AM EDT 9:17 PM EDT
Nautical Twilight 4:36 AM EDT 9:59 PM EDT
Astronomical Twilight 3:47 AM EDT 10:48 PM EDT
Moon 9:30 PM EDT (5/25) 6:16 AM EDT (5/25)
Length of Visible Light 15h 59m
Length of Day
14h 53m
Full, 100% of the Moon is Illuminated
May 25
Full
May 31
Last Quarter
Jun 8
New
Jun 16
First Quarter
Jun 23
Full

Hourly Weather History & Observations

Time (EDT) Temp. Windchill Dew Point Humidity Pressure Visibility Wind Dir Wind Speed Gust Speed Precip Events Conditions
12:51 AM 45.0 °F 39.3 °F 36.0 °F 71% 30.29 in 10.0 mi NNW 11.5 mph 18.4 mph N/A   Clear
1:51 AM 44.1 °F 39.0 °F 36.0 °F 73% 30.29 in 10.0 mi North 9.2 mph 16.1 mph N/A   Clear
2:51 AM 45.0 °F 39.7 °F 37.0 °F 74% 30.29 in 10.0 mi NNW 10.4 mph - N/A   Clear
3:51 AM 43.0 °F 37.2 °F 35.1 °F 74% 30.29 in 10.0 mi NNW 10.4 mph 19.6 mph N/A   Clear
4:51 AM 44.1 °F 39.5 °F 35.1 °F 71% 30.28 in 10.0 mi NNE 8.1 mph - N/A   Clear
5:51 AM 44.1 °F 39.0 °F 36.0 °F 73% 30.29 in 10.0 mi North 9.2 mph - N/A   Clear
6:51 AM 46.0 °F 41.4 °F 36.0 °F 68% 30.31 in 10.0 mi North 9.2 mph - N/A   Clear
7:51 AM 46.9 °F - 37.0 °F 68% 30.31 in 10.0 mi North 10.4 mph - N/A   Clear
8:51 AM 46.9 °F - 37.9 °F 71% 30.31 in 10.0 mi North 9.2 mph - N/A   Clear
9:51 AM 48.9 °F - 39.0 °F 69% 30.33 in 10.0 mi NW 10.4 mph - N/A   Clear
10:51 AM 50.0 °F - 37.0 °F 61% 30.34 in 10.0 mi NW 8.1 mph - N/A   Clear
11:51 AM 52.0 °F - 37.0 °F 57% 30.34 in 10.0 mi WNW 10.4 mph - N/A   Clear
12:51 PM 52.0 °F - 37.0 °F 57% 30.32 in 10.0 mi West 11.5 mph - N/A   Clear
1:51 PM 53.1 °F - 37.9 °F 57% 30.31 in 10.0 mi West 12.7 mph 18.4 mph N/A   Clear
2:51 PM 54.0 °F - 39.0 °F 57% 30.29 in 10.0 mi West 13.8 mph 21.9 mph N/A   Clear
3:51 PM 55.0 °F - 39.9 °F 57% 30.28 in 10.0 mi West 15.0 mph 23.0 mph N/A   Clear
4:51 PM 55.9 °F - 37.9 °F 51% 30.27 in 10.0 mi West 15.0 mph 23.0 mph N/A   Clear
5:51 PM 55.9 °F - 37.9 °F 51% 30.27 in 10.0 mi West 12.7 mph 21.9 mph N/A   Clear
6:51 PM 55.0 °F - 36.0 °F 49% 30.25 in 10.0 mi West 16.1 mph 25.3 mph N/A   Clear
7:51 PM 54.0 °F - 37.0 °F 53% 30.24 in 10.0 mi WNW 11.5 mph 24.2 mph N/A   Clear
8:51 PM 53.1 °F - 37.9 °F 57% 30.24 in 10.0 mi NW 11.5 mph 20.7 mph N/A   Clear
9:51 PM 53.1 °F - 37.9 °F 57% 30.24 in 10.0 mi NW 11.5 mph 19.6 mph N/A   Clear
10:51 PM 53.1 °F - 39.0 °F 59% 30.25 in 10.0 mi NNW 9.2 mph 17.3 mph N/A   Clear
11:51 PM 52.0 °F - 39.0 °F 61% 30.25 in 10.0 mi North 10.4 mph - N/A   Clear